Location: W�rzburg
(49.7529°N, 9.8822°E)
Time: 11:12:37
(UTC+01:00)

ISS - Pass Details

Date: 12 February 2018
Orbit: 402 x 407 km, 51.6° (Epoch: 24 February)

Event Time Altitude Azimuth Distance (km) Brightness Sun altitude
Rises 18:31:36 0° 285° (WNW) 2,321 1.4 -9.8°
Reaches altitude 10° 18:33:58 10° 270° (W) 1,459 0.6 -10.2°
Maximum altitude 18:36:33 22° 217° (SW) 947 -1.4 -10.6°
Drops below altitude 10° 18:39:08 10° 165° (SSE) 1,453 -1.1 -11.0°
Sets 18:41:29 0° 149° (SSE) 2,309 -0.2 -11.4°
